Time,TemperatureF,DewpointF,PressureIn,WindDirection,WindDirectionDegrees,WindSpeedMPH,WindSpeedGustMPH,Humidity,HourlyPrecipIn,Conditions,Clouds,dailyrainin,SolarRadiationWatts/m^2,SoftwareType,DateUTC
2013-11-08 00:00:00,38.3,30.8,30.20,SSW,207,0.0,4.0,74,0.00,,---,0.00,0.00,VWS V14.01,2013-11-08 05:00:00,
2013-11-08 00:01:00,36.4,30.5,30.20,WSW,238,0.0,0.0,79,0.00,,---,0.22,0.00,VWS V14.01,2013-11-08 05:01:00,
2013-11-08 00:02:00,36.4,30.5,30.19,WSW,238,0.0,0.0,79,0.00,,---,0.22,0.00,VWS V14.01,2013-11-08 05:02:00,
2013-11-08 00:04:00,36.3,30.4,30.20,WSW,238,0.0,0.0,79,0.00,,---,0.22,0.00,VWS V14.01,2013-11-08 05:04:00,
2013-11-08 00:10:00,36.1,30.5,30.20,WSW,238,0.0,0.0,80,0.00,,---,0.00,0.00,VWS V14.01,2013-11-08 05:10:00,
2013-11-08 00:15:00,35.9,30.3,30.20,WSW,238,0.0,0.0,80,0.00,,---,0.00,0.00,VWS V14.01,2013-11-08 05:15:00,
2013-11-08 00:20:00,36.0,30.4,30.19,WSW,238,0.0,2.0,80,0.00,,---,0.00,0.00,VWS V14.01,2013-11-08 05:20:00,
2013-11-08 00:25:00,36.3,30.7,30.20,WSW,238,0.0,2.0,80,0.00,,---,0.00,0.00,VWS V14.01,2013-11-08 05:25:00,
2013-11-08 00:30:00,36.8,30.9,30.20,WSW,238,1.0,2.0,79,0.00,,---,0.00,0.00,VWS V14.01,2013-11-08 05:30:00,
2013-11-08 00:35:00,37.3,30.8,30.20,WSW,238,0.0,2.0,77,0.00,,---,0.00,0.00,VWS V14.01,2013-11-08 05:35:00,
2013-11-08 00:40:00,37.6,31.1,30.20,WSW,238,0.0,1.0,77,0.00,,---,0.00,0.00,VWS V14.01,2013-11-08 05:40:00,
2013-11-08 00:45:00,37.7,30.8,30.20,WSW,238,0.0,1.0,76,0.00,,---,0.00,0.00,VWS V14.01,2013-11-08 05:45:00,
2013-11-08 00:50:00,37.8,29.9,30.22,SW,228,0.0,4.0,73,0.00,,---,0.00,0.00,VWS V14.01,2013-11-08 05:50:00,
2013-11-08 00:51:00,37.9,31.0,30.20,WSW,246,1.0,4.0,76,0.00,,---,0.00,0.00,VWS V14.01,2013-11-08 05:51:00,
2013-11-08 00:56:00,38.0,30.8,30.20,WSW,237,0.0,4.0,75,0.00,,---,0.00,0.00,VWS V14.01,2013-11-08 05:56:00,
2013-11-08 01:00:00,37.5,29.6,30.22,SW,232,0.0,3.0,73,0.00,,---,0.00,0.00,VWS V14.01,2013-11-08 06:00:00,
2013-11-08 01:01:00,38.2,31.0,30.20,SW,224,0.0,4.0,75,0.00,,---,0.00,0.00,VWS V14.01,2013-11-08 06:01:00,
2013-11-08 01:06:00,38.3,30.8,30.20,SSW,206,1.0,4.0,74,0.00,,---,0.00,0.00,VWS V14.01,2013-11-08 06:06:00,
2013-11-08 01:10:00,37.1,29.3,30.22,SW,232,0.0,1.0,73,0.00,,---,0.00,0.00,VWS V14.01,2013-11-08 06:10:00,
2013-11-08 01:11:00,38.3,30.8,30.21,SSW,207,0.0,2.0,74,0.00,,---,0.00,0.00,VWS V14.01,2013-11-08 06:11:00,
2013-11-08 01:16:00,38.3,30.8,30.21,SSW,207,0.0,2.0,74,0.00,,---,0.00,0.00,VWS V14.01,2013-11-08 06:16:00,
2013-11-08 01:20:00,37.0,29.2,30.22,SW,226,0.0,3.0,73,0.00,,---,0.00,0.00,VWS V14.01,2013-11-08 06:20:00,
2013-11-08 01:21:00,38.2,30.3,30.21,SW,215,1.0,3.0,73,0.00,,---,0.00,0.00,VWS V14.01,2013-11-08 06:21:00,
2013-11-08 01:27:00,38.2,30.7,30.21,SW,215,0.0,3.0,74,0.00,,---,0.00,0.00,VWS V14.01,2013-11-08 06:27:00,
2013-11-08 01:30:00,37.0,29.2,30.23,SW,226,0.0,1.0,73,0.00,,---,0.00,0.00,VWS V14.01,2013-11-08 06:30:00,
2013-11-08 01:32:00,38.0,30.5,30.21,SW,215,0.0,2.0,74,0.00,,---,0.00,0.00,VWS V14.01,2013-11-08 06:32:00,
2013-11-08 01:37:00,37.9,30.4,30.22,SW,215,0.0,3.0,74,0.00,,---,0.00,0.00,VWS V14.01,2013-11-08 06:37:00,
2013-11-08 01:40:00,36.7,28.9,30.22,SW,226,0.0,0.0,73,0.00,,---,0.00,0.00,VWS V14.01,2013-11-08 06:40:00,
2013-11-08 01:42:00,38.0,30.1,30.22,SW,229,1.0,2.0,73,0.00,,---,0.00,0.00,VWS V14.01,2013-11-08 06:42:00,
2013-11-08 01:47:00,38.0,30.1,30.22,SW,227,0.0,2.0,73,0.00,,---,0.00,0.00,VWS V14.01,2013-11-08 06:47:00,
2013-11-08 01:50:00,36.7,28.5,30.22,SW,233,0.0,2.0,72,0.00,,---,0.00,0.00,VWS V14.01,2013-11-08 06:50:00,
2013-11-08 01:52:00,37.8,29.9,30.22,SW,228,0.0,4.0,73,0.00,,---,0.00,0.00,VWS V14.01,2013-11-08 06:52:00,
2013-11-08 01:57:00,37.8,29.9,30.22,SW,228,0.0,4.0,73,0.00,,---,0.00,0.00,VWS V14.01,2013-11-08 06:57:00,
2013-11-08 02:00:00,36.9,28.4,30.22,SW,234,0.0,4.0,71,0.00,,---,0.00,0.00,VWS V14.01,2013-11-08 07:00:00,
2013-11-08 02:02:00,37.7,29.8,30.22,SW,232,0.0,3.0,73,0.00,,---,0.00,0.00,VWS V14.01,2013-11-08 07:02:00,
2013-11-08 02:07:00,37.5,29.6,30.22,SW,232,0.0,3.0,73,0.00,,---,0.00,0.00,VWS V14.01,2013-11-08 07:07:00,
2013-11-08 02:10:00,37.0,28.5,30.22,SW,235,0.0,2.0,71,0.00,,---,0.00,0.00,VWS V14.01,2013-11-08 07:10:00,
2013-11-08 02:13:00,37.3,29.5,30.22,SW,232,0.0,1.0,73,0.00,,---,0.00,0.00,VWS V14.01,2013-11-08 07:13:00,
2013-11-08 02:18:00,37.1,29.3,30.22,SW,232,0.0,0.0,73,0.00,,---,0.00,0.00,VWS V14.01,2013-11-08 07:18:00,
2013-11-08 02:20:00,36.7,28.2,30.22,SW,233,0.0,2.0,71,0.00,,---,0.00,0.00,VWS V14.01,2013-11-08 07:20:00,
2013-11-08 02:23:00,37.1,29.3,30.22,SW,226,0.0,3.0,73,0.00,,---,0.00,0.00,VWS V14.01,2013-11-08 07:23:00,
2013-11-08 02:28:00,37.0,29.2,30.22,SW,226,0.0,0.0,73,0.00,,---,0.00,0.00,VWS V14.01,2013-11-08 07:28:00,
2013-11-08 02:30:00,36.6,28.1,30.22,SW,231,0.0,2.0,71,0.00,,---,0.00,0.00,VWS V14.01,2013-11-08 07:30:00,
2013-11-08 02:33:00,37.0,29.2,30.22,SW,226,1.0,1.0,73,0.00,,---,0.00,0.00,VWS V14.01,2013-11-08 07:33:00,
2013-11-08 02:38:00,36.9,29.1,30.22,SW,226,0.0,0.0,73,0.00,,---,0.00,0.00,VWS V14.01,2013-11-08 07:38:00,
2013-11-08 02:40:00,36.7,28.2,30.22,WSW,244,0.0,3.0,71,0.00,,---,0.00,0.00,VWS V14.01,2013-11-08 07:40:00,
2013-11-08 02:43:00,36.8,29.0,30.22,SW,226,0.0,0.0,73,0.00,,---,0.00,0.00,VWS V14.01,2013-11-08 07:43:00,
2013-11-08 02:48:00,36.7,28.9,30.22,SW,226,0.0,0.0,73,0.00,,---,0.00,0.00,VWS V14.01,2013-11-08 07:48:00,
2013-11-08 02:50:00,36.4,28.2,30.22,WSW,244,0.0,1.0,72,0.00,,---,0.00,0.00,VWS V14.01,2013-11-08 07:50:00,
2013-11-08 02:53:00,36.6,28.4,30.22,SW,233,0.0,2.0,72,0.00,,---,0.00,0.00,VWS V14.01,2013-11-08 07:53:00,
2013-11-08 02:58:00,36.7,28.5,30.22,SW,233,1.0,1.0,72,0.00,,---,0.00,0.00,VWS V14.01,2013-11-08 07:58:00,
2013-11-08 03:00:00,35.9,28.1,30.22,WSW,244,0.0,0.0,73,0.00,,---,0.00,0.00,VWS V14.01,2013-11-08 08:00:00,
2013-11-08 03:04:00,36.8,28.6,30.22,SW,236,0.0,2.0,72,0.00,,---,0.00,0.00,VWS V14.01,2013-11-08 08:04:00,
2013-11-08 03:09:00,36.9,28.4,30.22,SW,234,1.0,2.0,71,0.00,,---,0.00,0.00,VWS V14.01,2013-11-08 08:09:00,
2013-11-08 03:10:00,35.4,27.6,30.22,West,259,0.0,1.0,73,0.00,,---,0.00,0.00,VWS V14.01,2013-11-08 08:10:00,
2013-11-08 03:14:00,37.0,28.5,30.22,SW,235,0.0,2.0,71,0.00,,---,0.00,0.00,VWS V14.01,2013-11-08 08:14:00,
2013-11-08 03:19:00,36.9,28.4,30.22,SW,235,0.0,0.0,71,0.00,,---,0.00,0.00,VWS V14.01,2013-11-08 08:19:00,
2013-11-08 03:20:00,35.0,27.9,30.23,West,259,0.0,1.0,75,0.00,,---,0.00,0.00,VWS V14.01,2013-11-08 08:20:00,
2013-11-08 03:24:00,36.8,28.3,30.22,SW,235,0.0,1.0,71,0.00,,---,0.00,0.00,VWS V14.01,2013-11-08 08:24:00,
2013-11-08 03:29:00,36.7,28.2,30.22,SW,233,0.0,1.0,71,0.00,,---,0.00,0.00,VWS V14.01,2013-11-08 08:29:00,
2013-11-08 03:30:00,35.1,28.0,30.23,WSW,250,0.0,2.0,75,0.00,,---,0.00,0.00,VWS V14.01,2013-11-08 08:30:00,
2013-11-08 03:34:00,36.7,28.5,30.22,SW,233,0.0,1.0,72,0.00,,---,0.00,0.00,VWS V14.01,2013-11-08 08:34:00,
2013-11-08 03:39:00,36.6,28.1,30.22,WSW,238,0.0,3.0,71,0.00,,---,0.00,0.00,VWS V14.01,2013-11-08 08:39:00,
2013-11-08 03:40:00,35.0,27.9,30.23,WSW,251,0.0,1.0,75,0.00,,---,0.00,0.00,VWS V14.01,2013-11-08 08:40:00,
2013-11-08 03:44:00,36.8,28.3,30.22,WSW,244,0.0,3.0,71,0.00,,---,0.00,0.00,VWS V14.01,2013-11-08 08:44:00,
2013-11-08 03:49:00,36.7,28.2,30.22,WSW,244,0.0,0.0,71,0.00,,---,0.00,0.00,VWS V14.01,2013-11-08 08:49:00,
2013-11-08 03:50:00,34.9,27.8,30.23,WSW,238,0.0,2.0,75,0.00,,---,0.00,0.00,VWS V14.01,2013-11-08 08:50:00,
2013-11-08 03:54:00,36.5,28.4,30.22,WSW,244,0.0,1.0,72,0.00,,---,0.00,0.00,VWS V14.01,2013-11-08 08:54:00,
2013-11-08 04:00:00,36.3,27.8,30.22,WSW,244,0.0,0.0,71,0.00,,---,0.00,0.00,VWS V14.01,2013-11-08 09:00:00,
2013-11-08 04:05:00,36.0,27.9,30.22,WSW,244,0.0,0.0,72,0.00,,---,0.00,0.00,VWS V14.01,2013-11-08 09:05:00,
2013-11-08 04:10:00,35.8,28.0,30.22,WSW,244,0.0,0.0,73,0.00,,---,0.00,0.00,VWS V14.01,2013-11-08 09:10:00,
2013-11-08 04:15:00,35.5,27.7,30.22,West,259,0.0,1.0,73,0.00,,---,0.00,0.00,VWS V14.01,2013-11-08 09:15:00,
2013-11-08 04:20:00,35.3,27.9,30.22,WSW,258,0.0,1.0,74,0.00,,---,0.00,0.00,VWS V14.01,2013-11-08 09:20:00,
2013-11-08 04:25:00,35.1,28.0,30.23,WSW,257,0.0,1.0,75,0.00,,---,0.00,0.00,VWS V14.01,2013-11-08 09:25:00,
2013-11-08 04:30:00,35.0,27.6,30.23,WSW,251,0.0,2.0,74,0.00,,---,0.00,0.00,VWS V14.01,2013-11-08 09:30:00,
2013-11-08 04:35:00,35.1,27.7,30.23,WSW,250,0.0,2.0,74,0.00,,---,0.00,0.00,VWS V14.01,2013-11-08 09:35:00,
2013-11-08 04:40:00,35.1,28.0,30.23,WSW,250,0.0,1.0,75,0.00,,---,0.00,0.00,VWS V14.01,2013-11-08 09:40:00,
2013-11-08 04:45:00,35.0,27.9,30.23,WSW,252,0.0,1.0,75,0.00,,---,0.00,0.00,VWS V14.01,2013-11-08 09:45:00,
2013-11-08 04:50:00,33.9,27.8,30.24,WSW,242,0.0,3.0,78,0.00,,---,0.00,0.00,VWS V14.01,2013-11-08 09:50:00,
2013-11-08 04:51:00,35.0,27.9,30.22,WSW,250,0.0,2.0,75,0.00,,---,0.00,0.00,VWS V14.01,2013-11-08 09:51:00,
2013-11-08 04:56:00,34.9,27.8,30.23,WSW,238,0.0,2.0,75,0.00,,---,0.00,0.00,VWS V14.01,2013-11-08 09:56:00,
2013-11-08 05:00:00,33.6,27.8,30.25,West,279,0.0,2.0,79,0.00,,---,0.00,0.00,VWS V14.01,2013-11-08 10:00:00,
2013-11-08 05:01:00,34.8,28.0,30.23,WSW,240,1.0,2.0,76,0.00,,---,0.00,0.00,VWS V14.01,2013-11-08 10:01:00,
2013-11-08 05:06:00,34.6,27.8,30.23,WSW,239,0.0,2.0,76,0.00,,---,0.00,0.00,VWS V14.01,2013-11-08 10:06:00,
2013-11-08 05:10:00,33.5,28.0,30.25,West,274,0.0,2.0,80,0.00,,---,0.00,0.00,VWS V14.01,2013-11-08 10:10:00,
2013-11-08 05:11:00,34.5,27.7,30.23,WSW,239,0.0,1.0,76,0.00,,---,0.00,0.00,VWS V14.01,2013-11-08 10:11:00,
2013-11-08 05:16:00,34.3,27.9,30.23,WSW,242,0.0,1.0,77,0.00,,---,0.00,0.00,VWS V14.01,2013-11-08 10:16:00,
2013-11-08 05:20:00,33.1,27.9,30.26,West,273,0.0,1.0,81,0.00,,---,0.00,0.00,VWS V14.01,2013-11-08 10:20:00,
2013-11-08 05:21:00,34.2,27.8,30.24,WSW,242,2.0,2.0,77,0.00,,---,0.00,0.00,VWS V14.01,2013-11-08 10:21:00,
2013-11-08 05:26:00,34.2,28.1,30.24,WSW,243,0.0,2.0,78,0.00,,---,0.00,0.00,VWS V14.01,2013-11-08 10:26:00,
2013-11-08 05:30:00,33.0,28.1,30.26,West,273,0.0,1.0,82,0.00,,---,0.00,0.00,VWS V14.01,2013-11-08 10:30:00,
2013-11-08 05:31:00,34.2,27.8,30.24,WSW,242,0.0,1.0,77,0.00,,---,0.00,0.00,VWS V14.01,2013-11-08 10:31:00,
2013-11-08 05:36:00,34.2,28.1,30.24,WSW,242,0.0,1.0,78,0.00,,---,0.00,0.00,VWS V14.01,2013-11-08 10:36:00,
2013-11-08 05:40:00,32.9,28.3,30.26,SSW,195,0.0,3.0,83,0.00,,---,0.00,0.00,VWS V14.01,2013-11-08 10:40:00,
2013-11-08 05:41:00,34.1,28.0,30.24,WSW,242,0.0,1.0,78,0.00,,---,0.00,0.00,VWS V14.01,2013-11-08 10:41:00,
2013-11-08 05:47:00,34.0,27.6,30.24,WSW,242,0.0,1.0,77,0.00,,---,0.00,0.00,VWS V14.01,2013-11-08 10:47:00,
2013-11-08 05:50:00,33.0,28.4,30.27,WSW,238,1.0,3.0,83,0.00,,---,0.00,0.00,VWS V14.01,2013-11-08 10:50:00,
2013-11-08 05:52:00,34.1,28.0,30.24,WSW,242,0.0,1.0,78,0.00,,---,0.00,0.00,VWS V14.01,2013-11-08 10:52:00,
2013-11-08 05:57:00,33.9,27.8,30.24,WSW,242,0.0,3.0,78,0.00,,---,0.00,0.00,VWS V14.01,2013-11-08 10:57:00,
2013-11-08 06:00:00,33.0,28.4,30.26,WSW,238,0.0,2.0,83,0.00,,---,0.00,7.00,VWS V14.01,2013-11-08 11:00:00,
2013-11-08 06:02:00,33.7,27.9,30.25,WSW,242,0.0,1.0,79,0.00,,---,0.00,0.00,VWS V14.01,2013-11-08 11:02:00,
2013-11-08 06:07:00,33.6,27.8,30.25,West,279,0.0,2.0,79,0.00,,---,0.00,0.00,VWS V14.01,2013-11-08 11:07:00,
2013-11-08 06:10:00,33.0,28.7,30.27,SW,229,0.0,7.0,84,0.00,,---,0.00,11.00,VWS V14.01,2013-11-08 11:10:00,
2013-11-08 06:12:00,33.5,28.0,30.25,West,274,0.0,2.0,80,0.00,,---,0.00,0.00,VWS V14.01,2013-11-08 11:12:00,
2013-11-08 06:17:00,33.5,28.0,30.25,West,274,0.0,2.0,80,0.00,,---,0.00,0.00,VWS V14.01,2013-11-08 11:17:00,
2013-11-08 06:20:00,33.4,29.1,30.27,SW,227,0.0,4.0,84,0.00,,---,0.00,14.00,VWS V14.01,2013-11-08 11:20:00,
2013-11-08 06:22:00,33.2,28.0,30.26,West,273,0.0,1.0,81,0.00,,---,0.00,0.00,VWS V14.01,2013-11-08 11:22:00,
2013-11-08 06:27:00,33.1,27.9,30.26,West,273,0.0,1.0,81,0.00,,---,0.00,0.00,VWS V14.01,2013-11-08 11:27:00,
2013-11-08 06:30:00,33.7,29.4,30.27,SW,236,0.0,3.0,84,0.00,,---,0.00,16.00,VWS V14.01,2013-11-08 11:30:00,
2013-11-08 06:32:00,33.1,28.2,30.26,West,273,0.0,1.0,82,0.00,,---,0.00,0.00,VWS V14.01,2013-11-08 11:32:00,
2013-11-08 06:37:00,33.0,28.1,30.26,West,273,0.0,1.0,82,0.00,,---,0.00,0.00,VWS V14.01,2013-11-08 11:37:00,
2013-11-08 06:40:00,33.9,29.6,30.28,SW,232,0.0,4.0,84,0.00,,---,0.00,18.00,VWS V14.01,2013-11-08 11:40:00,
2013-11-08 06:42:00,32.8,27.9,30.26,West,273,0.0,0.0,82,0.00,,---,0.00,0.00,VWS V14.01,2013-11-08 11:42:00,
2013-11-08 06:48:00,32.8,28.2,30.26,SSW,195,0.0,0.0,83,0.00,,---,0.00,0.00,VWS V14.01,2013-11-08 11:48:00,
2013-11-08 06:50:00,34.2,29.9,30.30,WSW,247,0.0,4.0,84,0.00,,---,0.00,19.00,VWS V14.01,2013-11-08 11:50:00,
2013-11-08 06:53:00,33.0,28.4,30.26,SSW,195,0.0,0.0,83,0.00,,---,0.00,0.00,VWS V14.01,2013-11-08 11:53:00,
2013-11-08 06:58:00,33.0,28.4,30.27,WSW,238,0.0,1.0,83,0.00,,---,0.00,0.00,VWS V14.01,2013-11-08 11:58:00,
2013-11-08 07:00:00,34.3,30.0,30.30,WSW,246,1.0,4.0,84,0.00,,---,0.00,19.00,VWS V14.01,2013-11-08 12:00:00,
2013-11-08 07:03:00,33.0,28.4,30.27,WSW,238,0.0,2.0,83,0.00,,---,0.00,5.00,VWS V14.01,2013-11-08 12:03:00,
2013-11-08 07:08:00,33.0,28.4,30.27,WSW,238,0.0,1.0,83,0.00,,---,0.00,7.00,VWS V14.01,2013-11-08 12:08:00,
2013-11-08 07:10:00,34.8,30.2,30.30,West,261,0.0,5.0,83,0.00,,---,0.00,21.00,VWS V14.01,2013-11-08 12:10:00,
2013-11-08 07:13:00,32.9,28.3,30.27,WSW,238,0.0,4.0,83,0.00,,---,0.00,9.00,VWS V14.01,2013-11-08 12:13:00,
2013-11-08 07:18:00,33.1,28.8,30.27,SW,229,0.0,0.0,84,0.00,,---,0.00,11.00,VWS V14.01,2013-11-08 12:18:00,
2013-11-08 07:20:00,35.2,30.3,30.31,WSW,238,0.0,4.0,82,0.00,,---,0.00,23.00,VWS V14.01,2013-11-08 12:20:00,
2013-11-08 07:23:00,33.2,28.9,30.27,SW,231,1.0,4.0,84,0.00,,---,0.00,12.00,VWS V14.01,2013-11-08 12:23:00,
2013-11-08 07:28:00,33.4,29.1,30.27,SW,232,0.0,3.0,84,0.00,,---,0.00,14.00,VWS V14.01,2013-11-08 12:28:00,
2013-11-08 07:30:00,35.6,30.0,30.31,SW,226,0.0,4.0,80,0.00,,---,0.00,23.00,VWS V14.01,2013-11-08 12:30:00,
2013-11-08 07:33:00,33.5,29.2,30.27,West,264,0.0,3.0,84,0.00,,---,0.00,14.00,VWS V14.01,2013-11-08 12:33:00,
2013-11-08 07:38:00,33.7,29.4,30.28,West,261,0.0,2.0,84,0.00,,---,0.00,16.00,VWS V14.01,2013-11-08 12:38:00,
2013-11-08 07:40:00,36.1,29.9,30.32,SW,232,0.0,5.0,78,0.00,,---,0.00,23.00,VWS V14.01,2013-11-08 12:40:00,
2013-11-08 07:43:00,33.8,29.5,30.28,SW,231,1.0,3.0,84,0.00,,---,0.00,16.00,VWS V14.01,2013-11-08 12:43:00,
2013-11-08 07:49:00,33.9,29.6,30.29,West,264,2.0,2.0,84,0.00,,---,0.00,18.00,VWS V14.01,2013-11-08 12:49:00,
2013-11-08 07:50:00,36.4,29.6,30.33,WSW,240,1.0,8.0,76,0.00,,---,0.00,25.00,VWS V14.01,2013-11-08 12:50:00,
2013-11-08 07:54:00,34.1,29.8,30.29,WSW,245,0.0,4.0,84,0.00,,---,0.00,18.00,VWS V14.01,2013-11-08 12:54:00,
2013-11-08 07:59:00,34.2,30.2,30.30,WSW,240,0.0,4.0,85,0.00,,---,0.00,19.00,VWS V14.01,2013-11-08 12:59:00,
2013-11-08 08:00:00,36.7,29.9,30.33,WSW,243,0.0,9.0,76,0.00,,---,0.00,25.00,VWS V14.01,2013-11-08 13:00:00,
2013-11-08 08:04:00,34.3,30.0,30.30,WSW,246,0.0,4.0,84,0.00,,---,0.00,19.00,VWS V14.01,2013-11-08 13:04:00,
2013-11-08 08:09:00,34.3,30.0,30.30,WSW,246,0.0,2.0,84,0.00,,---,0.00,21.00,VWS V14.01,2013-11-08 13:09:00,
2013-11-08 08:10:00,37.1,29.6,30.33,SW,234,1.0,7.0,74,0.00,,---,0.00,26.00,VWS V14.01,2013-11-08 13:10:00,
2013-11-08 08:14:00,34.6,30.3,30.30,SW,234,5.0,5.0,84,0.00,,---,0.00,21.00,VWS V14.01,2013-11-08 13:14:00,
2013-11-08 08:19:00,34.9,30.3,30.30,West,259,2.0,2.0,83,0.00,,---,0.00,21.00,VWS V14.01,2013-11-08 13:19:00,
2013-11-08 08:20:00,37.4,29.5,30.33,WSW,238,1.0,6.0,73,0.00,,---,0.00,35.00,VWS V14.01,2013-11-08 13:20:00,
2013-11-08 08:24:00,35.0,30.1,30.31,WSW,248,0.0,3.0,82,0.00,,---,0.00,21.00,VWS V14.01,2013-11-08 13:24:00,
2013-11-08 08:29:00,35.2,30.3,30.31,WSW,238,1.0,3.0,82,0.00,,---,0.00,23.00,VWS V14.01,2013-11-08 13:29:00,
2013-11-08 08:30:00,37.7,28.8,30.34,SW,227,0.0,7.0,70,0.00,,---,0.00,32.00,VWS V14.01,2013-11-08 13:30:00,
2013-11-08 08:34:00,35.5,30.0,30.32,SW,234,0.0,4.0,80,0.00,,---,0.00,23.00,VWS V14.01,2013-11-08 13:34:00,
2013-11-08 08:39:00,35.8,30.2,30.31,SW,236,0.0,3.0,80,0.00,,---,0.00,23.00,VWS V14.01,2013-11-08 13:39:00,
2013-11-08 08:40:00,38.2,28.9,30.34,SW,234,4.0,5.0,69,0.00,,---,0.00,58.00,VWS V14.01,2013-11-08 13:40:00,
2013-11-08 08:44:00,35.9,30.0,30.32,SW,231,0.0,4.0,79,0.00,,---,0.00,23.00,VWS V14.01,2013-11-08 13:44:00,
2013-11-08 08:50:00,36.2,30.0,30.32,WSW,238,0.0,5.0,78,0.00,,---,0.00,25.00,VWS V14.01,2013-11-08 13:50:00,
2013-11-08 08:55:00,36.4,29.9,30.32,West,281,0.0,5.0,77,0.00,,---,0.00,25.00,VWS V14.01,2013-11-08 13:55:00,
2013-11-08 09:00:00,36.5,29.7,30.33,SW,226,0.0,9.0,76,0.00,,---,0.00,25.00,VWS V14.01,2013-11-08 14:00:00,
2013-11-08 09:05:00,36.6,29.8,30.33,WSW,240,0.0,9.0,76,0.00,,---,0.00,25.00,VWS V14.01,2013-11-08 14:05:00,
2013-11-08 09:10:00,36.8,29.6,30.33,SW,236,1.0,4.0,75,0.00,,---,0.00,26.00,VWS V14.01,2013-11-08 14:10:00,
2013-11-08 09:15:00,37.0,29.5,30.33,SW,228,2.0,7.0,74,0.00,,---,0.00,28.00,VWS V14.01,2013-11-08 14:15:00,
2013-11-08 09:20:00,37.1,29.6,30.33,SW,234,1.0,6.0,74,0.00,,---,0.00,26.00,VWS V14.01,2013-11-08 14:20:00,
2013-11-08 09:25:00,37.3,29.5,30.33,SW,228,2.0,6.0,73,0.00,,---,0.00,26.00,VWS V14.01,2013-11-08 14:25:00,
2013-11-08 09:30:00,37.5,29.3,30.33,WSW,252,0.0,4.0,72,0.00,,---,0.00,47.00,VWS V14.01,2013-11-08 14:30:00,
2013-11-08 09:35:00,37.7,29.2,30.34,SW,227,2.0,7.0,71,0.00,,---,0.00,39.00,VWS V14.01,2013-11-08 14:35:00,
2013-11-08 09:40:00,37.9,29.0,30.34,SW,233,0.0,5.0,70,0.00,,---,0.00,49.00,VWS V14.01,2013-11-08 14:40:00,
2013-11-08 09:46:00,38.1,28.8,30.34,WSW,250,0.0,5.0,69,0.00,,---,0.00,65.00,VWS V14.01,2013-11-08 14:46:00,
2013-11-08 09:50:00,42.7,28.5,30.35,NW,325,0.0,6.0,57,0.00,,---,0.00,587.00,VWS V14.01,2013-11-08 14:50:00,
2013-11-08 09:51:00,38.3,28.7,30.34,ESE,123,0.0,4.0,68,0.00,,---,0.00,93.00,VWS V14.01,2013-11-08 14:51:00,
2013-11-08 09:56:00,38.6,29.0,30.34,NW,311,0.0,4.0,68,0.00,,---,0.00,114.00,VWS V14.01,2013-11-08 14:56:00,
2013-11-08 10:00:00,43.7,29.9,30.34,SSE,154,0.0,5.0,58,0.00,,---,0.00,603.00,VWS V14.01,2013-11-08 15:00:00,
2013-11-08 10:01:00,38.9,28.9,30.34,West,271,3.0,3.0,67,0.00,,---,0.00,32.00,VWS V14.01,2013-11-08 15:01:00,
2013-11-08 10:06:00,39.1,28.3,30.34,NW,316,0.0,5.0,65,0.00,,---,0.00,47.00,VWS V14.01,2013-11-08 15:06:00,
2013-11-08 10:10:00,45.2,29.6,30.35,West,273,4.0,4.0,54,0.00,,---,0.00,619.00,VWS V14.01,2013-11-08 15:10:00,
2013-11-08 10:11:00,39.2,28.8,30.34,South,186,0.0,3.0,66,0.00,,---,0.00,62.00,VWS V14.01,2013-11-08 15:11:00,
2013-11-08 10:16:00,39.3,27.8,30.34,NW,318,0.0,3.0,63,0.00,,---,0.00,76.00,VWS V14.01,2013-11-08 15:16:00,
2013-11-08 10:20:00,46.1,29.0,30.35,WNW,302,0.0,4.0,51,0.00,,---,0.00,629.00,VWS V14.01,2013-11-08 15:20:00,
2013-11-08 10:21:00,39.8,27.9,30.35,North,351,2.0,5.0,62,0.00,,---,0.00,114.00,VWS V14.01,2013-11-08 15:21:00,
2013-11-08 10:26:00,40.1,27.8,30.35,WNW,301,0.0,5.0,61,0.00,,---,0.00,95.00,VWS V14.01,2013-11-08 15:26:00,
2013-11-08 10:30:00,46.4,27.3,30.34,NW,306,2.0,7.0,47,0.00,,---,0.00,642.00,VWS V14.01,2013-11-08 15:30:00,
2013-11-08 10:31:00,40.3,27.9,30.35,West,264,0.0,3.0,61,0.00,,---,0.00,86.00,VWS V14.01,2013-11-08 15:31:00,
2013-11-08 10:36:00,40.6,29.0,30.35,WSW,250,0.0,3.0,63,0.00,,---,0.00,88.00,VWS V14.01,2013-11-08 15:36:00,
2013-11-08 10:40:00,47.1,30.4,30.34,East,85,0.0,4.0,52,0.00,,---,0.00,652.00,VWS V14.01,2013-11-08 15:40:00,
2013-11-08 10:42:00,40.9,29.3,30.35,SSW,212,1.0,4.0,63,0.00,,---,0.00,555.00,VWS V14.01,2013-11-08 15:42:00,
2013-11-08 10:47:00,41.5,30.2,30.35,NNW,329,1.0,7.0,64,0.00,,---,0.00,564.00,VWS V14.01,2013-11-08 15:47:00,
2013-11-08 10:50:00,48.3,29.0,30.33,East,92,1.0,2.0,47,0.00,,---,0.00,661.00,VWS V14.01,2013-11-08 15:50:00,
2013-11-08 10:52:00,42.3,29.8,30.35,NW,304,4.0,4.0,61,0.00,,---,0.00,577.00,VWS V14.01,2013-11-08 15:52:00,
2013-11-08 10:57:00,42.7,29.0,30.35,NW,325,0.0,6.0,58,0.00,,---,0.00,587.00,VWS V14.01,2013-11-08 15:57:00,
2013-11-08 11:00:00,48.2,30.0,30.32,NE,42,0.0,4.0,49,0.00,,---,0.00,663.00,VWS V14.01,2013-11-08 16:00:00,
2013-11-08 11:02:00,43.1,29.8,30.35,WSW,254,1.0,5.0,59,0.00,,---,0.00,577.00,VWS V14.01,2013-11-08 16:02:00,
2013-11-08 11:07:00,43.7,31.1,30.34,SSE,154,0.0,5.0,61,0.00,,---,0.00,603.00,VWS V14.01,2013-11-08 16:07:00,
2013-11-08 11:10:00,48.9,28.5,30.32,NE,42,0.0,4.0,45,0.00,,---,0.00,668.00,VWS V14.01,2013-11-08 16:10:00,
2013-11-08 11:12:00,44.3,30.0,30.35,NNE,22,0.0,4.0,57,0.00,,---,0.00,610.00,VWS V14.01,2013-11-08 16:12:00,
2013-11-08 11:17:00,45.1,29.5,30.35,NE,44,1.0,4.0,54,0.00,,---,0.00,619.00,VWS V14.01,2013-11-08 16:17:00,
2013-11-08 11:20:00,48.7,29.9,30.31,NE,47,0.0,11.0,48,0.00,,---,0.00,668.00,VWS V14.01,2013-11-08 16:20:00,
2013-11-08 11:22:00,45.8,29.7,30.34,NE,46,0.0,4.0,53,0.00,,---,0.00,624.00,VWS V14.01,2013-11-08 16:22:00,
2013-11-08 11:27:00,46.1,29.0,30.35,WNW,302,1.0,4.0,51,0.00,,---,0.00,629.00,VWS V14.01,2013-11-08 16:27:00,
2013-11-08 11:30:00,49.6,32.2,30.31,NE,46,0.0,2.0,51,0.00,,---,0.00,668.00,VWS V14.01,2013-11-08 16:30:00,
2013-11-08 11:32:00,46.2,28.6,30.34,WNW,296,1.0,7.0,50,0.00,,---,0.00,640.00,VWS V14.01,2013-11-08 16:32:00,
2013-11-08 11:37:00,46.4,27.3,30.34,NW,306,2.0,2.0,47,0.00,,---,0.00,642.00,VWS V14.01,2013-11-08 16:37:00,
2013-11-08 11:40:00,50.0,30.6,30.30,NE,51,0.0,2.0,47,0.00,,---,0.00,664.00,VWS V14.01,2013-11-08 16:40:00,
2013-11-08 11:43:00,46.5,28.9,30.34,NNE,21,1.0,4.0,50,0.00,,---,0.00,649.00,VWS V14.01,2013-11-08 16:43:00,
2013-11-08 11:48:00,47.2,31.4,30.33,East,85,0.0,0.0,54,0.00,,---,0.00,652.00,VWS V14.01,2013-11-08 16:48:00,
2013-11-08 11:50:00,49.2,29.3,30.29,East,95,0.0,4.0,46,0.00,,---,0.00,663.00,VWS V14.01,2013-11-08 16:50:00,
2013-11-08 11:53:00,48.1,31.3,30.33,East,85,0.0,1.0,52,0.00,,---,0.00,654.00,VWS V14.01,2013-11-08 16:53:00,
2013-11-08 11:58:00,48.3,29.0,30.33,East,92,0.0,1.0,47,0.00,,---,0.00,661.00,VWS V14.01,2013-11-08 16:58:00,
2013-11-08 12:00:00,49.0,28.6,30.30,NW,319,0.0,4.0,45,0.00,,---,0.00,656.00,VWS V14.01,2013-11-08 17:00:00,
2013-11-08 12:03:00,48.0,29.8,30.32,NE,49,0.0,4.0,49,0.00,,---,0.00,663.00,VWS V14.01,2013-11-08 17:03:00,
2013-11-08 12:08:00,48.2,30.5,30.32,NE,49,1.0,1.0,50,0.00,,---,0.00,666.00,VWS V14.01,2013-11-08 17:08:00,
2013-11-08 12:10:00,49.6,29.7,30.30,NNW,331,0.0,2.0,46,0.00,,---,0.00,650.00,VWS V14.01,2013-11-08 17:10:00,
2013-11-08 12:13:00,48.6,30.3,30.32,ENE,60,1.0,4.0,49,0.00,,---,0.00,666.00,VWS V14.01,2013-11-08 17:13:00,
2013-11-08 12:18:00,48.8,29.0,30.32,NE,39,0.0,2.0,46,0.00,,---,0.00,668.00,VWS V14.01,2013-11-08 17:18:00,
2013-11-08 12:20:00,50.5,28.9,30.29,WSW,242,2.0,7.0,43,0.00,,---,0.00,642.00,VWS V14.01,2013-11-08 17:20:00,
2013-11-08 12:23:00,48.7,28.3,30.32,WSW,252,1.0,11.0,45,0.00,,---,0.00,668.00,VWS V14.01,2013-11-08 17:23:00,
2013-11-08 12:28:00,48.7,30.4,30.31,NE,50,0.0,2.0,49,0.00,,---,0.00,666.00,VWS V14.01,2013-11-08 17:28:00,
2013-11-08 12:30:00,50.5,29.4,30.29,WSW,239,0.0,3.0,44,0.00,,---,0.00,631.00,VWS V14.01,2013-11-08 17:30:00,
2013-11-08 12:33:00,49.1,31.8,30.31,NE,41,0.0,2.0,51,0.00,,---,0.00,670.00,VWS V14.01,2013-11-08 17:33:00,
2013-11-08 12:39:00,49.7,32.3,30.31,NE,47,0.0,2.0,51,0.00,,---,0.00,668.00,VWS V14.01,2013-11-08 17:39:00,
2013-11-08 12:40:00,50.9,30.3,30.29,North,351,0.0,4.0,45,0.00,,---,0.00,617.00,VWS V14.01,2013-11-08 17:40:00,
2013-11-08 12:44:00,50.0,30.6,30.30,NE,51,1.0,2.0,47,0.00,,---,0.00,666.00,VWS V14.01,2013-11-08 17:44:00,
2013-11-08 12:49:00,50.0,30.6,30.30,East,98,0.0,2.0,47,0.00,,---,0.00,666.00,VWS V14.01,2013-11-08 17:49:00,
2013-11-08 12:50:00,51.8,30.0,30.28,ENE,57,0.0,3.0,43,0.00,,---,0.00,605.00,VWS V14.01,2013-11-08 17:50:00,
2013-11-08 12:54:00,49.5,29.1,30.30,WNW,285,0.0,4.0,45,0.00,,---,0.00,666.00,VWS V14.01,2013-11-08 17:54:00,
2013-11-08 12:59:00,49.3,30.5,30.30,NE,49,0.0,2.0,48,0.00,,---,0.00,659.00,VWS V14.01,2013-11-08 17:59:00,
2013-11-08 13:00:00,51.9,30.1,30.28,East,81,0.0,2.0,43,0.00,,---,0.00,589.00,VWS V14.01,2013-11-08 18:00:00,
2013-11-08 13:04:00,49.2,28.2,30.30,WNW,303,0.0,4.0,44,0.00,,---,0.00,659.00,VWS V14.01,2013-11-08 18:04:00,
2013-11-08 13:09:00,49.1,29.2,30.30,NW,321,0.0,1.0,46,0.00,,---,0.00,654.00,VWS V14.01,2013-11-08 18:09:00,
2013-11-08 13:10:00,51.9,29.5,30.28,WSW,244,6.0,8.0,42,0.00,,---,0.00,568.00,VWS V14.01,2013-11-08 18:10:00,
2013-11-08 13:14:00,49.4,29.5,30.30,NNW,329,0.0,2.0,46,0.00,,---,0.00,652.00,VWS V14.01,2013-11-08 18:14:00,
2013-11-08 13:19:00,49.8,30.4,30.30,NNW,331,0.0,1.0,47,0.00,,---,0.00,645.00,VWS V14.01,2013-11-08 18:19:00,
2013-11-08 13:20:00,50.5,27.7,30.28,SW,227,0.0,9.0,41,0.00,,---,0.00,548.00,VWS V14.01,2013-11-08 18:20:00,
2013-11-08 13:24:00,50.4,29.9,30.29,NE,44,0.0,2.0,45,0.00,,---,0.00,643.00,VWS V14.01,2013-11-08 18:24:00,
2013-11-08 13:29:00,50.3,29.2,30.29,WSW,240,1.0,3.0,44,0.00,,---,0.00,636.00,VWS V14.01,2013-11-08 18:29:00,
2013-11-08 13:30:00,51.2,28.3,30.28,SW,222,0.0,4.0,41,0.00,,---,0.00,529.00,VWS V14.01,2013-11-08 18:30:00,
2013-11-08 13:35:00,50.3,30.3,30.29,WSW,239,0.0,3.0,46,0.00,,---,0.00,633.00,VWS V14.01,2013-11-08 18:35:00,
2013-11-08 13:40:00,50.6,30.6,30.29,NNE,13,0.0,3.0,46,0.00,,---,0.00,631.00,VWS V14.01,2013-11-08 18:40:00,
2013-11-08 13:45:00,50.8,30.8,30.29,North,351,0.0,4.0,46,0.00,,---,0.00,619.00,VWS V14.01,2013-11-08 18:45:00,
2013-11-08 13:50:00,51.2,31.7,30.29,North,351,0.0,0.0,47,0.00,,---,0.00,613.00,VWS V14.01,2013-11-08 18:50:00,
2013-11-08 13:55:00,51.7,31.6,30.28,NE,44,0.0,1.0,46,0.00,,---,0.00,610.00,VWS V14.01,2013-11-08 18:55:00,
2013-11-08 14:00:00,51.8,31.1,30.28,ENE,76,0.0,1.0,45,0.00,,---,0.00,598.00,VWS V14.01,2013-11-08 19:00:00,
2013-11-08 14:05:00,51.9,29.5,30.28,East,81,0.0,1.0,42,0.00,,---,0.00,594.00,VWS V14.01,2013-11-08 19:05:00,
2013-11-08 14:10:00,52.2,29.2,30.28,WSW,238,3.0,4.0,41,0.00,,---,0.00,584.00,VWS V14.01,2013-11-08 19:10:00,
2013-11-08 14:15:00,52.1,29.1,30.28,West,279,2.0,5.0,41,0.00,,---,0.00,575.00,VWS V14.01,2013-11-08 19:15:00,
2013-11-08 14:20:00,51.2,28.3,30.28,WNW,288,1.0,9.0,41,0.00,,---,0.00,564.00,VWS V14.01,2013-11-08 19:20:00,
2013-11-08 14:25:00,50.6,28.4,30.28,SW,227,0.0,9.0,42,0.00,,---,0.00,554.00,VWS V14.01,2013-11-08 19:25:00,
2013-11-08 14:30:00,51.7,26.9,30.27,WNW,295,0.0,4.0,38,0.00,,---,0.00,374.00,VWS V14.01,2013-11-08 19:30:00,
2013-11-08 14:31:00,50.6,28.4,30.28,NNW,327,1.0,3.0,42,0.00,,---,0.00,543.00,VWS V14.01,2013-11-08 19:31:00,
2013-11-08 14:36:00,51.0,27.5,30.28,WSW,243,0.0,3.0,40,0.00,,---,0.00,534.00,VWS V14.01,2013-11-08 19:36:00,
2013-11-08 14:40:00,51.6,27.5,30.26,SE,144,2.0,7.0,39,0.00,,---,0.00,341.00,VWS V14.01,2013-11-08 19:40:00,
2013-11-08 14:41:00,51.2,28.3,30.28,SW,235,0.0,4.0,41,0.00,,---,0.00,522.00,VWS V14.01,2013-11-08 19:41:00,
2013-11-08 14:46:00,51.2,28.9,30.27,WSW,244,1.0,7.0,42,0.00,,---,0.00,508.00,VWS V14.01,2013-11-08 19:46:00,
2013-11-08 14:50:00,51.8,27.6,30.26,WSW,252,0.0,5.0,39,0.00,,---,0.00,308.00,VWS V14.01,2013-11-08 19:50:00,
2013-11-08 14:51:00,51.3,29.0,30.27,SSW,208,0.0,5.0,42,0.00,,---,0.00,497.00,VWS V14.01,2013-11-08 19:51:00,
2013-11-08 14:56:00,51.7,28.2,30.27,SW,234,0.0,5.0,40,0.00,,---,0.00,487.00,VWS V14.01,2013-11-08 19:56:00,
2013-11-08 15:00:00,51.4,27.3,30.26,WNW,288,0.0,6.0,39,0.00,,---,0.00,265.00,VWS V14.01,2013-11-08 20:00:00,
2013-11-08 15:01:00,51.5,27.4,30.27,SW,232,0.0,9.0,39,0.00,,---,0.00,475.00,VWS V14.01,2013-11-08 20:01:00,
2013-11-08 15:06:00,51.4,28.5,30.26,West,278,0.0,9.0,41,0.00,,---,0.00,461.00,VWS V14.01,2013-11-08 20:06:00,
2013-11-08 15:10:00,51.5,26.8,30.26,SSW,212,0.0,4.0,38,0.00,,---,0.00,227.00,VWS V14.01,2013-11-08 20:10:00,
2013-11-08 15:11:00,51.3,27.8,30.26,WNW,294,0.0,2.0,40,0.00,,---,0.00,446.00,VWS V14.01,2013-11-08 20:11:00,
2013-11-08 15:16:00,51.5,27.4,30.26,WSW,243,0.0,5.0,39,0.00,,---,0.00,432.00,VWS V14.01,2013-11-08 20:16:00,
2013-11-08 15:20:00,51.8,28.3,30.25,SSW,212,0.0,1.0,40,0.00,,---,0.00,183.00,VWS V14.01,2013-11-08 20:20:00,
2013-11-08 15:22:00,51.5,27.4,30.26,WSW,238,4.0,6.0,39,0.00,,---,0.00,417.00,VWS V14.01,2013-11-08 20:22:00,
2013-11-08 15:27:00,51.5,27.4,30.26,WSW,238,1.0,6.0,39,0.00,,---,0.00,404.00,VWS V14.01,2013-11-08 20:27:00,
2013-11-08 15:30:00,52.5,27.0,30.26,SSW,212,0.0,1.0,37,0.00,,---,0.00,142.00,VWS V14.01,2013-11-08 20:30:00,
2013-11-08 15:32:00,51.5,26.8,30.27,SW,227,1.0,4.0,38,0.00,,---,0.00,390.00,VWS V14.01,2013-11-08 20:32:00,
2013-11-08 15:37:00,51.7,27.6,30.27,WNW,295,0.0,4.0,39,0.00,,---,0.00,374.00,VWS V14.01,2013-11-08 20:37:00,
2013-11-08 15:40:00,52.3,27.5,30.25,SSW,212,0.0,0.0,38,0.00,,---,0.00,104.00,VWS V14.01,2013-11-08 20:40:00,
2013-11-08 15:42:00,51.9,29.0,30.26,WSW,237,2.0,6.0,41,0.00,,---,0.00,359.00,VWS V14.01,2013-11-08 20:42:00,
2013-11-08 15:47:00,51.6,27.5,30.26,SW,220,0.0,7.0,39,0.00,,---,0.00,341.00,VWS V14.01,2013-11-08 20:47:00,
2013-11-08 15:50:00,51.4,25.4,30.25,SSW,212,0.0,2.0,36,0.00,,---,0.00,26.00,VWS V14.01,2013-11-08 20:50:00,
2013-11-08 15:52:00,51.6,28.1,30.26,SW,219,0.0,3.0,40,0.00,,---,0.00,323.00,VWS V14.01,2013-11-08 20:52:00,
2013-11-08 15:57:00,51.8,27.6,30.26,WSW,252,0.0,5.0,39,0.00,,---,0.00,308.00,VWS V14.01,2013-11-08 20:57:00,
2013-11-08 16:00:00,50.0,26.0,30.26,SSW,212,0.0,2.0,39,0.00,,---,0.00,19.00,VWS V14.01,2013-11-08 21:00:00,
2013-11-08 16:02:00,51.5,27.4,30.26,WSW,238,3.0,6.0,39,0.00,,---,0.00,287.00,VWS V14.01,2013-11-08 21:02:00,
2013-11-08 16:07:00,51.4,27.3,30.26,WNW,288,0.0,6.0,39,0.00,,---,0.00,265.00,VWS V14.01,2013-11-08 21:07:00,
2013-11-08 16:10:00,48.4,25.2,30.26,SW,232,0.0,2.0,40,0.00,,---,0.00,9.00,VWS V14.01,2013-11-08 21:10:00,
2013-11-08 16:13:00,51.5,27.4,30.26,SW,234,0.0,4.0,39,0.00,,---,0.00,244.00,VWS V14.01,2013-11-08 21:13:00,
2013-11-08 16:18:00,51.5,26.8,30.26,SSW,212,0.0,0.0,38,0.00,,---,0.00,223.00,VWS V14.01,2013-11-08 21:18:00,
2013-11-08 16:20:00,47.2,26.4,30.26,SW,232,0.0,0.0,44,0.00,,---,0.00,5.00,VWS V14.01,2013-11-08 21:20:00,
2013-11-08 16:23:00,51.6,26.8,30.26,SSW,212,0.0,1.0,38,0.00,,---,0.00,200.00,VWS V14.01,2013-11-08 21:23:00,
2013-11-08 16:28:00,51.8,29.5,30.26,SSW,212,0.0,0.0,42,0.00,,---,0.00,179.00,VWS V14.01,2013-11-08 21:28:00,
2013-11-08 16:30:00,45.9,25.2,30.26,SW,232,0.0,0.0,44,0.00,,---,0.00,0.00,VWS V14.01,2013-11-08 21:30:00,
2013-11-08 16:33:00,52.2,28.0,30.26,SSW,212,0.0,1.0,39,0.00,,---,0.00,160.00,VWS V14.01,2013-11-08 21:33:00,
2013-11-08 16:38:00,52.6,27.7,30.26,SSW,212,0.0,0.0,38,0.00,,---,0.00,139.00,VWS V14.01,2013-11-08 21:38:00,
2013-11-08 16:40:00,45.0,25.0,30.25,SW,232,0.0,0.0,45,0.00,,---,0.00,0.00,VWS V14.01,2013-11-08 21:40:00,
2013-11-08 16:43:00,52.6,27.1,30.25,SSW,212,0.0,0.0,37,0.00,,---,0.00,121.00,VWS V14.01,2013-11-08 21:43:00,
2013-11-08 16:48:00,52.2,27.4,30.25,SSW,212,0.0,0.0,38,0.00,,---,0.00,100.00,VWS V14.01,2013-11-08 21:48:00,
2013-11-08 16:50:00,44.1,25.7,30.25,SW,232,0.0,0.0,48,0.00,,---,0.00,0.00,VWS V14.01,2013-11-08 21:50:00,
2013-11-08 16:53:00,51.8,27.0,30.26,SSW,212,0.0,2.0,38,0.00,,---,0.00,83.00,VWS V14.01,2013-11-08 21:53:00,
2013-11-08 16:59:00,51.3,25.3,30.25,SSW,212,0.0,0.0,36,0.00,,---,0.00,26.00,VWS V14.01,2013-11-08 21:59:00,
2013-11-08 17:00:00,43.1,25.7,30.26,SW,232,0.0,0.0,50,0.00,,---,0.00,0.00,VWS V14.01,2013-11-08 22:00:00,
2013-11-08 17:04:00,50.7,26.0,30.26,SSW,212,1.0,1.0,38,0.00,,---,0.00,19.00,VWS V14.01,2013-11-08 22:04:00,
2013-11-08 17:09:00,49.8,26.5,30.25,SSW,212,0.0,0.0,40,0.00,,---,0.00,19.00,VWS V14.01,2013-11-08 22:09:00,
2013-11-08 17:10:00,42.2,26.3,30.26,SW,232,0.0,0.0,53,0.00,,---,0.00,0.00,VWS V14.01,2013-11-08 22:10:00,
2013-11-08 17:14:00,48.9,25.7,30.26,SW,232,0.0,2.0,40,0.00,,---,0.00,11.00,VWS V14.01,2013-11-08 22:14:00,
2013-11-08 17:19:00,48.3,25.1,30.26,SW,232,0.0,0.0,40,0.00,,---,0.00,7.00,VWS V14.01,2013-11-08 22:19:00,
2013-11-08 17:20:00,41.2,26.3,30.25,SW,232,0.0,0.0,55,0.00,,---,0.00,0.00,VWS V14.01,2013-11-08 22:20:00,
2013-11-08 17:24:00,47.6,26.2,30.26,SW,232,0.0,0.0,43,0.00,,---,0.00,5.00,VWS V14.01,2013-11-08 22:24:00,
2013-11-08 17:29:00,46.9,26.1,30.26,SW,232,0.0,0.0,44,0.00,,---,0.00,0.00,VWS V14.01,2013-11-08 22:29:00,
2013-11-08 17:30:00,40.6,26.6,30.26,SW,232,0.0,0.0,57,0.00,,---,0.00,0.00,VWS V14.01,2013-11-08 22:30:00,
2013-11-08 17:34:00,46.3,25.0,30.26,SW,232,0.0,0.0,43,0.00,,---,0.00,0.00,VWS V14.01,2013-11-08 22:34:00,
2013-11-08 17:39:00,45.8,25.1,30.26,SW,232,0.0,0.0,44,0.00,,---,0.00,0.00,VWS V14.01,2013-11-08 22:39:00,
2013-11-08 17:40:00,40.1,26.5,30.26,SW,232,0.0,0.0,58,0.00,,---,0.00,0.00,VWS V14.01,2013-11-08 22:40:00,
2013-11-08 17:45:00,45.2,25.7,30.26,SW,232,0.0,0.0,46,0.00,,---,0.00,0.00,VWS V14.01,2013-11-08 22:45:00,
2013-11-08 17:50:00,44.8,25.3,30.26,SW,232,0.0,0.0,46,0.00,,---,0.00,0.00,VWS V14.01,2013-11-08 22:50:00,
2013-11-08 17:55:00,44.3,25.4,30.25,SW,232,0.0,0.0,47,0.00,,---,0.00,0.00,VWS V14.01,2013-11-08 22:55:00,
2013-11-08 18:00:00,43.9,27.0,30.26,SW,232,0.0,0.0,51,0.00,,---,0.00,0.00,VWS V14.01,2013-11-08 23:00:00,
2013-11-08 18:05:00,43.3,25.4,30.25,SW,232,0.0,0.0,49,0.00,,---,0.00,0.00,VWS V14.01,2013-11-08 23:05:00,
2013-11-08 18:10:00,42.8,25.9,30.26,SW,232,0.0,0.0,51,0.00,,---,0.00,0.00,VWS V14.01,2013-11-08 23:10:00,
2013-11-08 18:15:00,42.4,26.0,30.26,SW,232,0.0,0.0,52,0.00,,---,0.00,0.00,VWS V14.01,2013-11-08 23:15:00,
2013-11-08 18:20:00,41.8,27.3,30.26,SW,232,0.0,0.0,56,0.00,,---,0.00,0.00,VWS V14.01,2013-11-08 23:20:00,
2013-11-08 18:26:00,41.4,26.0,30.26,SW,232,0.0,0.0,54,0.00,,---,0.00,0.00,VWS V14.01,2013-11-08 23:26:00,
2013-11-08 18:30:00,39.5,26.4,30.27,SW,232,0.0,0.0,59,0.00,,---,0.00,0.00,VWS V14.01,2013-11-08 23:30:00,
2013-11-08 18:31:00,41.0,26.5,30.26,SW,232,0.0,0.0,56,0.00,,---,0.00,0.00,VWS V14.01,2013-11-08 23:31:00,
2013-11-08 18:36:00,40.6,27.0,30.26,SW,232,0.0,0.0,58,0.00,,---,0.00,0.00,VWS V14.01,2013-11-08 23:36:00,
2013-11-08 18:40:00,38.7,26.0,30.27,SW,232,0.0,0.0,60,0.00,,---,0.00,0.00,VWS V14.01,2013-11-08 23:40:00,
2013-11-08 18:41:00,40.4,26.8,30.26,SW,232,0.0,0.0,58,0.00,,---,0.00,0.00,VWS V14.01,2013-11-08 23:41:00,
2013-11-08 18:46:00,40.2,26.6,30.26,SW,232,0.0,0.0,58,0.00,,---,0.00,0.00,VWS V14.01,2013-11-08 23:46:00,
2013-11-08 18:50:00,38.6,25.9,30.27,SW,232,0.0,0.0,60,0.00,,---,0.00,0.00,VWS V14.01,2013-11-08 23:50:00,
2013-11-08 18:51:00,40.0,26.8,30.26,SW,232,0.0,0.0,59,0.00,,---,0.00,0.00,VWS V14.01,2013-11-08 23:51:00,
2013-11-08 18:56:00,39.8,27.5,30.26,SW,232,0.0,0.0,61,0.00,,---,0.00,0.00,VWS V14.01,2013-11-08 23:56:00,
2013-11-08 19:00:00,38.2,25.1,30.27,SW,232,0.0,0.0,59,0.00,,---,0.00,0.00,VWS V14.01,2013-11-09 00:00:00,
2013-11-08 19:01:00,39.7,26.6,30.26,SW,232,0.0,0.0,59,0.00,,---,0.00,0.00,VWS V14.01,2013-11-09 00:01:00,
2013-11-08 19:06:00,39.6,26.5,30.26,SW,232,0.0,0.0,59,0.00,,---,0.00,0.00,VWS V14.01,2013-11-09 00:06:00,
2013-11-08 19:10:00,38.2,25.1,30.27,SW,232,0.0,0.0,59,0.00,,---,0.00,0.00,VWS V14.01,2013-11-09 00:10:00,
2013-11-08 19:12:00,39.4,27.1,30.26,SW,232,0.0,0.0,61,0.00,,---,0.00,0.00,VWS V14.01,2013-11-09 00:12:00,
2013-11-08 19:17:00,39.5,25.5,30.26,SW,232,0.0,0.0,57,0.00,,---,0.00,0.00,VWS V14.01,2013-11-09 00:17:00,
2013-11-08 19:20:00,38.1,25.9,30.28,SW,232,0.0,0.0,61,0.00,,---,0.00,0.00,VWS V14.01,2013-11-09 00:20:00,
2013-11-08 19:22:00,40.0,26.8,30.27,SW,232,0.0,0.0,59,0.00,,---,0.00,0.00,VWS V14.01,2013-11-09 00:22:00,
2013-11-08 19:27:00,40.0,26.0,30.26,SW,232,0.0,0.0,57,0.00,,---,0.00,0.00,VWS V14.01,2013-11-09 00:27:00,
2013-11-08 19:30:00,38.0,26.1,30.28,SW,232,0.0,0.0,62,0.00,,---,0.00,0.00,VWS V14.01,2013-11-09 00:30:00,
2013-11-08 19:32:00,40.0,27.2,30.27,SW,232,0.0,0.0,60,0.00,,---,0.00,0.00,VWS V14.01,2013-11-09 00:32:00,
2013-11-08 19:37:00,39.6,26.5,30.27,SW,232,0.0,0.0,59,0.00,,---,0.00,0.00,VWS V14.01,2013-11-09 00:37:00,
2013-11-08 19:40:00,38.0,26.1,30.27,SW,221,0.0,2.0,62,0.00,,---,0.00,0.00,VWS V14.01,2013-11-09 00:40:00,
2013-11-08 19:42:00,39.1,26.8,30.27,SW,232,0.0,0.0,61,0.00,,---,0.00,0.00,VWS V14.01,2013-11-09 00:42:00,
2013-11-08 19:47:00,38.7,26.0,30.27,SW,232,0.0,0.0,60,0.00,,---,0.00,0.00,VWS V14.01,2013-11-09 00:47:00,
2013-11-08 19:50:00,37.9,25.3,30.27,SW,221,0.0,0.0,60,0.00,,---,0.00,0.00,VWS V14.01,2013-11-09 00:50:00,
2013-11-08 19:52:00,38.7,26.0,30.27,SW,232,0.0,0.0,60,0.00,,---,0.00,0.00,VWS V14.01,2013-11-09 00:52:00,
2013-11-08 19:58:00,38.6,25.9,30.27,SW,232,0.0,0.0,60,0.00,,---,0.00,0.00,VWS V14.01,2013-11-09 00:58:00,
2013-11-08 20:00:00,37.8,26.7,30.28,SW,221,0.0,0.0,64,0.00,,---,0.00,0.00,VWS V14.01,2013-11-09 01:00:00,
2013-11-08 20:03:00,38.4,25.7,30.27,SW,232,0.0,0.0,60,0.00,,---,0.00,0.00,VWS V14.01,2013-11-09 01:03:00,
2013-11-08 20:08:00,38.2,25.1,30.27,SW,232,0.0,0.0,59,0.00,,---,0.00,0.00,VWS V14.01,2013-11-09 01:08:00,
2013-11-08 20:10:00,37.3,25.5,30.27,SW,221,0.0,0.0,62,0.00,,---,0.00,0.00,VWS V14.01,2013-11-09 01:10:00,
2013-11-08 20:13:00,38.2,25.1,30.27,SW,232,0.0,0.0,59,0.00,,---,0.00,0.00,VWS V14.01,2013-11-09 01:13:00,
2013-11-08 20:18:00,38.2,25.1,30.27,SW,232,0.0,0.0,59,0.00,,---,0.00,0.00,VWS V14.01,2013-11-09 01:18:00,
2013-11-08 20:20:00,37.1,26.1,30.27,SW,221,0.0,0.0,64,0.00,,---,0.00,0.00,VWS V14.01,2013-11-09 01:20:00,
2013-11-08 20:23:00,38.2,26.0,30.27,SW,232,0.0,0.0,61,0.00,,---,0.00,0.00,VWS V14.01,2013-11-09 01:23:00,
2013-11-08 20:28:00,38.1,25.5,30.28,SW,232,0.0,0.0,60,0.00,,---,0.00,0.00,VWS V14.01,2013-11-09 01:28:00,
2013-11-08 20:30:00,36.8,25.8,30.27,SW,221,0.0,0.0,64,0.00,,---,0.00,0.00,VWS V14.01,2013-11-09 01:30:00,
2013-11-08 20:33:00,38.1,25.9,30.28,SW,232,0.0,0.0,61,0.00,,---,0.00,0.00,VWS V14.01,2013-11-09 01:33:00,
2013-11-08 20:38:00,38.0,26.5,30.28,SW,221,0.0,2.0,63,0.00,,---,0.00,0.00,VWS V14.01,2013-11-09 01:38:00,
2013-11-08 20:40:00,36.4,25.8,30.27,SW,221,0.0,0.0,65,0.00,,---,0.00,0.00,VWS V14.01,2013-11-09 01:40:00,
2013-11-08 20:44:00,38.1,26.2,30.27,SW,221,0.0,2.0,62,0.00,,---,0.00,0.00,VWS V14.01,2013-11-09 01:44:00,
2013-11-08 20:49:00,38.0,26.1,30.27,SW,221,0.0,0.0,62,0.00,,---,0.00,0.00,VWS V14.01,2013-11-09 01:49:00,
2013-11-08 20:50:00,36.9,26.2,30.27,SW,221,0.0,1.0,65,0.00,,---,0.00,0.00,VWS V14.01,2013-11-09 01:50:00,
2013-11-08 20:54:00,37.9,25.7,30.27,SW,221,0.0,0.0,61,0.00,,---,0.00,0.00,VWS V14.01,2013-11-09 01:54:00,
2013-11-08 20:59:00,38.0,25.8,30.27,SW,221,0.0,0.0,61,0.00,,---,0.00,0.00,VWS V14.01,2013-11-09 01:59:00,
2013-11-08 21:00:00,37.1,26.1,30.27,SW,221,0.0,0.0,64,0.00,,---,0.00,0.00,VWS V14.01,2013-11-09 02:00:00,
2013-11-08 21:04:00,37.9,26.1,30.28,SW,221,0.0,0.0,62,0.00,,---,0.00,0.00,VWS V14.01,2013-11-09 02:04:00,
2013-11-08 21:09:00,37.7,26.6,30.28,SW,221,0.0,0.0,64,0.00,,---,0.00,0.00,VWS V14.01,2013-11-09 02:09:00,
2013-11-08 21:10:00,37.1,26.1,30.27,SW,221,0.0,0.0,64,0.00,,---,0.00,0.00,VWS V14.01,2013-11-09 02:10:00,
2013-11-08 21:14:00,37.4,25.6,30.28,SW,221,0.0,0.0,62,0.00,,---,0.00,0.00,VWS V14.01,2013-11-09 02:14:00,
2013-11-08 21:19:00,37.3,25.5,30.27,SW,221,0.0,0.0,62,0.00,,---,0.00,0.00,VWS V14.01,2013-11-09 02:19:00,
2013-11-08 21:20:00,36.9,26.2,30.27,SW,221,0.0,0.0,65,0.00,,---,0.00,0.00,VWS V14.01,2013-11-09 02:20:00,
2013-11-08 21:24:00,37.2,25.8,30.27,SW,221,0.0,0.0,63,0.00,,---,0.00,0.00,VWS V14.01,2013-11-09 02:24:00,
2013-11-08 21:30:00,37.1,25.7,30.27,SW,221,0.0,0.0,63,0.00,,---,0.00,0.00,VWS V14.01,2013-11-09 02:30:00,
2013-11-08 21:35:00,36.9,25.5,30.27,SW,221,0.0,0.0,63,0.00,,---,0.00,0.00,VWS V14.01,2013-11-09 02:35:00,
2013-11-08 21:40:00,36.7,25.7,30.27,SW,221,0.0,0.0,64,0.00,,---,0.00,0.00,VWS V14.01,2013-11-09 02:40:00,
2013-11-08 21:45:00,36.5,26.2,30.27,SW,221,0.0,0.0,66,0.00,,---,0.00,0.00,VWS V14.01,2013-11-09 02:45:00,
2013-11-08 21:50:00,36.4,25.8,30.27,SW,221,0.0,0.0,65,0.00,,---,0.00,0.00,VWS V14.01,2013-11-09 02:50:00,
2013-11-08 21:55:00,36.8,25.8,30.27,SW,221,0.0,1.0,64,0.00,,---,0.00,0.00,VWS V14.01,2013-11-09 02:55:00,
2013-11-08 22:00:00,37.0,26.3,30.27,SW,221,0.0,0.0,65,0.00,,---,0.00,0.00,VWS V14.01,2013-11-09 03:00:00,
2013-11-08 22:05:00,37.1,26.1,30.27,SW,221,0.0,0.0,64,0.00,,---,0.00,0.00,VWS V14.01,2013-11-09 03:05:00,
2013-11-08 22:10:00,36.3,26.4,30.27,SW,221,0.0,0.0,67,0.00,,---,0.00,0.00,VWS V14.01,2013-11-09 03:10:00,
2013-11-08 22:11:00,37.1,26.4,30.27,SW,221,0.0,0.0,65,0.00,,---,0.00,0.00,VWS V14.01,2013-11-09 03:11:00,
2013-11-08 22:16:00,37.1,26.1,30.27,SW,221,0.0,0.0,64,0.00,,---,0.00,0.00,VWS V14.01,2013-11-09 03:16:00,
2013-11-08 22:20:00,35.5,26.4,30.27,SW,221,0.0,0.0,69,0.00,,---,0.00,0.00,VWS V14.01,2013-11-09 03:20:00,
2013-11-08 22:21:00,37.0,26.3,30.27,SW,221,0.0,0.0,65,0.00,,---,0.00,0.00,VWS V14.01,2013-11-09 03:21:00,
2013-11-08 22:26:00,36.9,26.2,30.27,SW,221,0.0,0.0,65,0.00,,---,0.00,0.00,VWS V14.01,2013-11-09 03:26:00,
2013-11-08 22:30:00,35.2,26.8,30.28,SW,221,0.0,0.0,71,0.00,,---,0.00,0.00,VWS V14.01,2013-11-09 03:30:00,
2013-11-08 22:31:00,36.9,25.9,30.27,SW,221,0.0,0.0,64,0.00,,---,0.00,0.00,VWS V14.01,2013-11-09 03:31:00,
2013-11-08 22:36:00,37.0,26.0,30.27,SW,221,0.0,0.0,64,0.00,,---,0.00,0.00,VWS V14.01,2013-11-09 03:36:00,
2013-11-08 22:40:00,35.1,26.3,30.27,SW,221,0.0,0.0,70,0.00,,---,0.00,0.00,VWS V14.01,2013-11-09 03:40:00,
2013-11-08 22:41:00,37.1,25.7,30.27,SW,221,0.0,0.0,63,0.00,,---,0.00,0.00,VWS V14.01,2013-11-09 03:41:00,
2013-11-08 22:47:00,37.2,25.8,30.27,SW,221,0.0,0.0,63,0.00,,---,0.00,0.00,VWS V14.01,2013-11-09 03:47:00,
2013-11-08 22:50:00,34.9,26.5,30.27,SW,221,0.0,0.0,71,0.00,,---,0.00,0.00,VWS V14.01,2013-11-09 03:50:00,
2013-11-08 22:52:00,37.3,26.3,30.27,SW,221,0.0,0.0,64,0.00,,---,0.00,0.00,VWS V14.01,2013-11-09 03:52:00,
2013-11-08 22:57:00,37.2,25.4,30.27,SW,221,0.0,0.0,62,0.00,,---,0.00,0.00,VWS V14.01,2013-11-09 03:57:00,
2013-11-08 23:00:00,34.5,26.4,30.27,SW,221,0.0,0.0,72,0.00,,---,0.00,0.00,VWS V14.01,2013-11-09 04:00:00,
2013-11-08 23:02:00,37.2,26.5,30.27,SW,221,0.0,0.0,65,0.00,,---,0.00,0.00,VWS V14.01,2013-11-09 04:02:00,
2013-11-08 23:07:00,36.8,25.8,30.27,SW,221,0.0,0.0,64,0.00,,---,0.00,0.00,VWS V14.01,2013-11-09 04:07:00,
2013-11-08 23:10:00,34.3,26.6,30.27,SW,221,0.0,0.0,73,0.00,,---,0.00,0.00,VWS V14.01,2013-11-09 04:10:00,
2013-11-08 23:12:00,36.6,26.3,30.27,SW,221,0.0,0.0,66,0.00,,---,0.00,0.00,VWS V14.01,2013-11-09 04:12:00,
2013-11-08 23:17:00,36.3,26.4,30.27,SW,221,0.0,0.0,67,0.00,,---,0.00,0.00,VWS V14.01,2013-11-09 04:17:00,
2013-11-08 23:20:00,34.3,26.9,30.27,SW,221,0.0,0.0,74,0.00,,---,0.00,0.00,VWS V14.01,2013-11-09 04:20:00,
2013-11-08 23:23:00,35.9,26.4,30.27,SW,221,0.0,0.0,68,0.00,,---,0.00,0.00,VWS V14.01,2013-11-09 04:23:00,
2013-11-08 23:28:00,35.5,26.4,30.27,SW,221,0.0,0.0,69,0.00,,---,0.00,0.00,VWS V14.01,2013-11-09 04:28:00,
2013-11-08 23:30:00,34.1,26.7,30.26,SW,221,0.0,0.0,74,0.00,,---,0.00,0.00,VWS V14.01,2013-11-09 04:30:00,
2013-11-08 23:33:00,35.2,26.4,30.27,SW,221,0.0,0.0,70,0.00,,---,0.00,0.00,VWS V14.01,2013-11-09 04:33:00,
2013-11-08 23:38:00,35.2,26.8,30.27,SW,221,0.0,0.0,71,0.00,,---,0.00,0.00,VWS V14.01,2013-11-09 04:38:00,
2013-11-08 23:40:00,33.8,26.7,30.26,SW,221,0.0,0.0,75,0.00,,---,0.00,0.00,VWS V14.01,2013-11-09 04:40:00,
2013-11-08 23:43:00,35.1,26.3,30.27,SW,221,0.0,0.0,70,0.00,,---,0.00,0.00,VWS V14.01,2013-11-09 04:43:00,
2013-11-08 23:48:00,35.1,26.7,30.27,SW,221,0.0,0.0,71,0.00,,---,0.00,0.00,VWS V14.01,2013-11-09 04:48:00,
2013-11-08 23:50:00,33.7,27.0,30.25,SW,221,0.0,0.0,76,0.00,,---,0.00,0.00,VWS V14.01,2013-11-09 04:50:00,
2013-11-08 23:54:00,35.0,26.6,30.27,SW,221,0.0,0.0,71,0.00,,---,0.00,0.00,VWS V14.01,2013-11-09 04:54:00,
2013-11-08 23:59:00,34.9,26.8,30.27,SW,221,0.0,0.0,72,0.00,,---,0.00,0.00,VWS V14.01,2013-11-09 04:59:00,